CZ-6A DEB

Satellite information

Favourite Embed

Satellite Type and Status

DEBRISIN ORBIT

Key statistics

Satellite CZ-6A DEB at a glance.

Uptime

969

Days in orbit

Revolutions

≈ 14.1

Per day

Orbit

SSO

Sun Synchronous Orbit

Inclination

98.8

Latest

Satellite identification and parameters

Extended collection of information and parameters for CZ-6A DEB.

Object identification

Identified? True

Debris? True

Object name: CZ-6A DEB

International designator: 2022-151AAW

Object number (NORAD): 55898

Object ID (CCSDS): 55898

Country: PEOPLES REPUBLIC OF CHINA (PRC)

Current information (Y/N): Y

RCS size: SMALL

Orbital parameters

Period: 101.91 minutes

Inclination: 98.8125 deg

SMA: 7227.228 km

Apoapsis: 889.426 km

Periapsis: 808.761 km

RAAN: 188.9015 deg

Eccentricy: 0.0055806

Argument of periapsis: 257.4153 deg

Mean anomaly: 102.0774 deg

Mean motion: 14.1300954 rev/day

Mean motion (dot): 0.00000876 rev/day2

B* drag term: 0.00048608 1/REarth

Two-line elements (TLE)

Creation date: July 6, 2025, 10:46 p.m.

Reference frame: TEME

Reference center: EARTH

Epoch: July 6, 2025, 8:39 p.m. UTC

TLE line 0: 0 CZ-6A DEB

TLE line 1: 1 55898U 22151AAW 25187.86058581 .00000876 00000-0 48608-3 0 9990

TLE line 2: 2 55898 98.8125 188.9015 0055806 257.4153 102.0774 14.13009540130117

Live tracking on map

Real-time ground track for satellite CZ-6A DEB.

In-orbit conjunctions

A list of the most updated potential collisions computed for object CZ-6A DEB.

Target Orbit TCA Probability of collision Miss distance Type
GGSE 2 LEO 2025-04-29 01:52:47 0.0001136538 455.0 (m) PAYLOAD
CZ-6A DEB SSO 2025-03-21 19:13:32 0.0001628267 309.0 (m) DEBRIS
NOAA 11 SSO 2024-07-28 14:00:38 0.0005997118 401.0 (m) PAYLOAD

Associated space launch

Chinese satellite reported for atmospheric/ocean/environmental/spatial parameter research purposes, details TBD.

CZ-6A DEB was lifted into orbit during the mission ‘Long March 6A | Yunhai 3’, on board a Long March 6A space rocket.

The launch took place on Nov. 11, 2022, 10:52 p.m. from Launch Complex 9A.

For more information about the launch, click the button.

Launch to space Long March 6A | Yunhai 3
Long March 6A | Yunhai 3

Agency: N/A

Status: Launch Successful

Launch date: Nov. 11, 2022, 10:52 p.m. UTC

Rocket: Long March 6A

Launch pad: Launch Complex 9A

Location: Taiyuan Satellite Launch Center, People's Republic of China

...

Latest news about this satellite

There are no fresh news available about this satellite. Check back as we update our databases every day.


Newsletter sign-up

Weekly statistics, charts and insights to help you stay on top of the space industry.